This is the latest recevied weather packets stored in our database for station/object N4ZIQ. If no packets are shown the sender has not sent any weather packets the latest 10 day(s).
| Time | Temp. | Humidity | Pressure | Rain* | Wind** | Luminosity | Snow |
|---|---|---|---|---|---|---|---|
| 1778259657 | 31.67° C | 58% | 1014.7 hPa | 0 mm | - | 858 W/m² | - |
| 1778259346 | 31.11° C | 59% | 1014.9 hPa | 0 mm | - | 919 W/m² | - |
| 1778259045 | 31.11° C | 58% | 1015 hPa | 0 mm | - | 923 W/m² | - |
| 1778258756 | 31.67° C | 59% | 1015.2 hPa | 0 mm | - | 930 W/m² | - |
| 1778258446 | 31.11° C | 60% | 1015.4 hPa | 0 mm | - | 919 W/m² | - |
| 1778258146 | 31.11° C | 61% | 1015.5 hPa | 0 mm | - | 882 W/m² | - |
| 1778257855 | 30.56° C | 61% | 1015.6 hPa | 0 mm | - | 921 W/m² | - |
| 1778257545 | 29.44° C | 65% | 1015.7 hPa | 0 mm | - | 916 W/m² | - |
| 1778257245 | 30° C | 64% | 1015.9 hPa | 0 mm | - | 148 W/m² | - |
| 1778256953 | 30° C | 63% | 1015.9 hPa | 0 mm | - | 953 W/m² | - |
| 1778256645 | 30° C | 64% | 1015.9 hPa | 0 mm | - | 918 W/m² | - |
| 1778256345 | 29.44° C | 64% | 1015.9 hPa | 0 mm | - | 193 W/m² | - |
| 1778256052 | 30.56° C | 64% | 1015.9 hPa | 0 mm | - | 981 W/m² | - |
| 1778255745 | 30° C | 67% | 1016 hPa | 0 mm | - | 969 W/m² | - |
| 1778255445 | 30° C | 63% | 1016 hPa | 0 mm | - | 211 W/m² | - |
| 1778255156 | 30° C | 67% | 1016.1 hPa | 0 mm | - | 923 W/m² | - |
| 1778254845 | 29.44° C | 67% | 1016.1 hPa | 0 mm | - | 853 W/m² | - |
| 1778254545 | 29.44° C | 67% | 1016.1 hPa | 0 mm | - | 819 W/m² | - |
| 1778254259 | 28.89° C | 69% | 1016.2 hPa | 0 mm | - | 186 W/m² | - |
| 1778253945 | 28.89° C | 70% | 1016.3 hPa | 0 mm | - | 186 W/m² | - |
| 1778253645 | 28.89° C | 72% | 1016.3 hPa | 0 mm | - | 888 W/m² | - |
| 1778253364 | 28.33° C | 72% | 1016.3 hPa | 0 mm | - | 786 W/m² | - |
| 1778253044 | 28.33° C | 73% | 1016.3 hPa | 0 mm | - | 174 W/m² | - |
| 1778252746 | 28.89° C | 70% | 1016.4 hPa | 0 mm | - | 868 W/m² | - |
| 1778252455 | 28.89° C | 72% | 1016.3 hPa | 0 mm | - | 831 W/m² | - |
* Rain latest hour (hover to see other rain measurements)
** Current wind speed in m/s (hover to see current wind gust speed)